Ft Lauderdale, FL

11:16 AM EDT on August 21, 2017 (GMT -0400)
Fort Lauderdale-Hollywood International

Weather History for KFLL - March, 2014

Change the Weather History Date:

Monday, March 3, 2014

  Actual Average Record
Temperature  
Mean Temperature 74 °F 72 °F  
Max Temperature 82 °F 79 °F 89 °F (2007)
Min Temperature 66 °F 65 °F 32 °F (1980)
Degree Days  
Heating Degree Days 0 1  
Month to date heating degree days 0 3  
Since 1 July heating degree days 80 105  
Cooling Degree Days 9 7  
Month to date cooling degree days 24 21  
Year to date cooling degree days 412 377  
Growing Degree Days 24 (Base 50)    
Moisture  
Dew Point 62 °F    
Average Humidity 65    
Maximum Humidity 81    
Minimum Humidity 49    
Precipitation  
Precipitation 0.00 in 0.08 in 2.40 in (1931)
Month to date precipitation T 0.22  
Year to date precipitation 5.51 6.81  
Snow  
Snow 0.00 in - - ()
Month to date snowfall 0.0  
Since 1 July snowfall 0.0  
Snow Depth 0.00 in    
Sea Level Pressure  
Sea Level Pressure 30.04 in    
Wind  
Wind Speed 8 mph (SSE)    
Max Wind Speed 17 mph    
Max Gust Speed 22 mph    
Visibility 10 miles    
Events      
T = Trace of Precipitation, MM = Missing Value Source: NWS Daily Summary

Daily Weather History Graph

Daily Weather History Graph

Search for Another Location

Airport or City:

Trip Planner

Search our weather history database for the weather conditions in past years. The results will help you decide how hot, cold, wet, or windy it might be!

Date:

Astronomy

Mar. 03, 2014 Rise Set
Actual Time 6:42 AM EST 6:23 PM EST
Civil Twilight 6:18 AM EST 6:46 PM EST
Nautical Twilight 5:52 AM EST 7:13 PM EST
Astronomical Twilight 5:25 AM EST 7:39 PM EST
Moon 8:07 AM EST (3/3) 9:03 PM EST (3/3)
Length of Visible Light 12h 27m
Length of Day
11h 41m
Waxing Crescent, 8% of the Moon is Illuminated
Mar 3
Waxing Crescent
Mar 8
First Quarter
Mar 16
Full
Mar 23
Last Quarter
Mar 30
New

Hourly Weather History & Observations

Time (EST) Temp. Heat Index Dew Point Humidity Pressure Visibility Wind Dir Wind Speed Gust Speed Precip Events Conditions
12:53 AM 73.0 °F - 61.0 °F 66% 30.07 in 10.0 mi SE 9.2 mph - N/A   Partly Cloudy
1:53 AM 72.0 °F - 60.1 °F 66% 30.05 in 10.0 mi SE 6.9 mph - N/A   Partly Cloudy
2:53 AM 71.1 °F - 60.1 °F 68% 30.03 in 10.0 mi SSE 4.6 mph - N/A   Partly Cloudy
3:53 AM 70.0 °F - 60.1 °F 71% 30.03 in 10.0 mi SSE 3.5 mph - N/A   Partly Cloudy
4:53 AM 69.1 °F - 59.0 °F 70% 30.02 in 10.0 mi SSE 3.5 mph - N/A   Partly Cloudy
5:53 AM 69.1 °F - 60.1 °F 73% 30.04 in 10.0 mi Calm Calm - N/A   Partly Cloudy
6:53 AM 66.9 °F - 61.0 °F 81% 30.05 in 10.0 mi NW 3.5 mph - N/A   Partly Cloudy
7:53 AM 71.1 °F - 63.0 °F 75% 30.07 in 10.0 mi North 3.5 mph - N/A   Partly Cloudy
8:53 AM 77.0 °F - 61.0 °F 58% 30.07 in 10.0 mi SSE 5.8 mph - N/A   Partly Cloudy
9:53 AM 78.1 °F - 59.0 °F 52% 30.09 in 10.0 mi SE 9.2 mph - N/A   Partly Cloudy
10:53 AM 79.0 °F - 59.0 °F 50% 30.09 in 10.0 mi SSE 4.6 mph - N/A   Partly Cloudy
11:53 AM 81.0 °F 81.3 °F 59.0 °F 47% 30.07 in 10.0 mi SE 11.5 mph 18.4 mph N/A   Partly Cloudy
12:53 PM 81.0 °F 81.6 °F 60.1 °F 49% 30.05 in 10.0 mi SE 10.4 mph - N/A   Partly Cloudy
1:53 PM 81.0 °F 81.7 °F 61.0 °F 50% 30.02 in 10.0 mi SE 16.1 mph - N/A   Partly Cloudy
2:53 PM 81.0 °F 81.9 °F 62.1 °F 52% 30.00 in 10.0 mi SE 16.1 mph - N/A   Partly Cloudy
3:53 PM 80.1 °F 81.2 °F 62.1 °F 54% 29.99 in 10.0 mi SE 15.0 mph - N/A   Partly Cloudy
4:53 PM 79.0 °F - 62.1 °F 56% 30.00 in 10.0 mi SSE 11.5 mph - N/A   Partly Cloudy
5:53 PM 78.1 °F - 62.1 °F 58% 30.01 in 10.0 mi SSE 10.4 mph - N/A   Partly Cloudy
6:53 PM 75.9 °F - 63.0 °F 64% 30.01 in 10.0 mi SSE 6.9 mph - N/A   Partly Cloudy
7:53 PM 75.9 °F - 64.0 °F 67% 30.03 in 10.0 mi South 8.1 mph - N/A   Clear
8:53 PM 75.0 °F - 64.9 °F 71% 30.04 in 10.0 mi SSW 6.9 mph - N/A   Clear
9:53 PM 73.9 °F - 64.9 °F 73% 30.05 in 10.0 mi SSW 5.8 mph - N/A   Clear
10:53 PM 73.0 °F - 64.0 °F 73% 30.06 in 10.0 mi SW 6.9 mph - N/A   Clear
11:53 PM 72.0 °F - 64.9 °F 78% 30.05 in 10.0 mi West 4.6 mph - N/A   Clear